Tracking 19562 objects as of 24-Mar-2019
HD Live streaming from Space Station
objects crossing your sky now

COSMOS 2071

Track COSMOS 2071 now!
10-day predictions
COSMOS 2071 is classified as:


NORAD ID: 20556
Int'l Code: 1990-029H
Perigee: 1,466.2 km
Apogee: 1,469.6 km
Inclination: 74.0 °
Period: 115.1 minutes
Semi major axis: 7838 km
RCS: 0.7084 m2 (medium)
Launch date: April 6, 1990
Source: Commonwealth of Independent States (former USSR) (CIS)
Launch site: PLESETSK MISSILE AND SPACE COMPLEX (PKMTR)
aabbcc
Your satellite tracking list
Your tracking list is empty




NASA's NSSDC Master Catalog

Two Line Element Set (TLE):
1 20556U 90029H   19083.20792667  .00000010  00000-0  16722-3 0  9990
2 20556  73.9825 169.1196 0002132  58.1418 340.1317 12.50897920322821
Source of the keplerian elements: AFSPC